TimeMDT,TemperatureF,Dew PointF,Humidity,Sea Level PressureIn,VisibilityMPH,Wind Direction,Wind SpeedMPH,Gust SpeedMPH,PrecipitationIn,Events,Conditions,WindDirDegrees,DateUTC
12:15 AM,12.2,6.8,79,30.44,10.0,Calm,Calm,-,N/A,,Clear,0,2014-03-23 06:15:00
12:35 AM,10.4,6.8,85,30.43,10.0,Calm,Calm,-,N/A,,Clear,0,2014-03-23 06:35:00
12:55 AM,10.4,3.2,73,30.42,10.0,Calm,Calm,-,N/A,,Clear,0,2014-03-23 06:55:00
1:15 AM,10.4,3.2,73,30.41,10.0,Calm,Calm,-,N/A,,Clear,0,2014-03-23 07:15:00
1:35 AM,10.4,6.8,85,30.40,10.0,Calm,Calm,-,N/A,,Clear,0,2014-03-23 07:35:00
1:55 AM,10.4,6.8,85,30.40,10.0,Calm,Calm,-,N/A,,Clear,0,2014-03-23 07:55:00
2:15 AM,10.4,5.0,79,30.39,10.0,Calm,Calm,-,N/A,,Clear,0,2014-03-23 08:15:00
2:35 AM,8.6,5.0,85,30.38,10.0,Calm,Calm,-,N/A,,Clear,0,2014-03-23 08:35:00
2:55 AM,8.6,6.8,92,30.38,10.0,SW,3.5,-,N/A,,Clear,220,2014-03-23 08:55:00
3:15 AM,8.6,6.8,92,30.37,10.0,Calm,Calm,-,N/A,,Clear,0,2014-03-23 09:15:00
3:35 AM,8.6,6.8,92,30.36,10.0,Calm,Calm,-,N/A,,Clear,0,2014-03-23 09:35:00
3:55 AM,8.6,3.2,79,30.35,10.0,Calm,Calm,-,N/A,,Clear,0,2014-03-23 09:55:00
4:15 AM,8.6,6.8,92,30.34,10.0,Calm,Calm,-,N/A,,Clear,0,2014-03-23 10:15:00
4:35 AM,8.6,6.8,92,30.34,10.0,Calm,Calm,-,N/A,,Clear,0,2014-03-23 10:35:00
4:55 AM,8.6,3.2,79,30.33,10.0,Calm,Calm,-,N/A,,Clear,0,2014-03-23 10:55:00
5:15 AM,10.4,6.8,85,30.34,10.0,Calm,Calm,-,N/A,,Clear,0,2014-03-23 11:15:00
5:35 AM,10.4,6.8,85,30.33,10.0,Calm,Calm,-,N/A,,Clear,0,2014-03-23 11:35:00
5:55 AM,12.2,10.4,92,30.33,10.0,Calm,Calm,-,N/A,,Clear,0,2014-03-23 11:55:00
6:15 AM,10.4,5.0,79,30.32,10.0,Calm,Calm,-,N/A,,Clear,0,2014-03-23 12:15:00
6:35 AM,8.6,3.2,79,30.32,10.0,Calm,Calm,-,N/A,,Clear,0,2014-03-23 12:35:00
6:55 AM,10.4,6.8,85,30.31,10.0,Calm,Calm,-,N/A,,Clear,0,2014-03-23 12:55:00
7:15 AM,10.4,6.8,85,30.31,10.0,Calm,Calm,-,N/A,,Clear,0,2014-03-23 13:15:00
7:35 AM,10.4,8.6,92,30.30,10.0,Calm,Calm,-,N/A,,Clear,0,2014-03-23 13:35:00
7:55 AM,15.8,8.6,73,30.30,10.0,ENE,4.6,-,N/A,,Clear,70,2014-03-23 13:55:00
8:15 AM,15.8,8.6,73,30.30,10.0,ENE,4.6,-,N/A,,Clear,60,2014-03-23 14:15:00
8:35 AM,17.6,10.4,73,30.30,10.0,North,3.5,-,N/A,,Clear,10,2014-03-23 14:35:00
8:55 AM,19.4,10.4,68,30.30,10.0,East,5.8,-,N/A,,Clear,90,2014-03-23 14:55:00
9:15 AM,19.4,10.4,68,30.29,10.0,NE,4.6,-,N/A,,Clear,50,2014-03-23 15:15:00
9:35 AM,21.2,10.4,63,30.29,10.0,ENE,6.9,-,N/A,,Clear,70,2014-03-23 15:35:00
9:55 AM,23.0,10.4,59,30.28,10.0,East,4.6,-,N/A,,Clear,100,2014-03-23 15:55:00
10:15 AM,24.8,8.6,50,30.28,10.0,SSE,4.6,-,N/A,,Clear,150,2014-03-23 16:15:00
10:35 AM,24.8,10.4,54,30.28,10.0,ESE,8.1,-,N/A,,Clear,120,2014-03-23 16:35:00
10:55 AM,26.6,8.6,47,30.27,10.0,East,9.2,-,N/A,,Clear,100,2014-03-23 16:55:00
11:15 AM,26.6,8.6,47,30.27,10.0,ESE,8.1,-,N/A,,Clear,110,2014-03-23 17:15:00
11:35 AM,26.6,8.6,47,30.26,10.0,SE,5.8,-,N/A,,Clear,140,2014-03-23 17:35:00
11:55 AM,28.4,8.6,43,30.26,10.0,NE,3.5,-,N/A,,Clear,40,2014-03-23 17:55:00
12:15 PM,28.4,8.6,43,30.25,10.0,East,5.8,-,N/A,,Partly Cloudy,80,2014-03-23 18:15:00
12:35 PM,28.4,8.6,43,30.25,10.0,East,5.8,-,N/A,,Partly Cloudy,90,2014-03-23 18:35:00
12:55 PM,28.4,6.8,40,30.25,10.0,SSE,4.6,-,N/A,,Scattered Clouds,150,2014-03-23 18:55:00
1:15 PM,30.2,8.6,40,30.25,10.0,ESE,5.8,-,N/A,,Mostly Cloudy,120,2014-03-23 19:15:00
1:35 PM,28.4,6.8,40,30.24,10.0,Calm,Calm,-,N/A,,Overcast,0,2014-03-23 19:35:00
1:55 PM,28.4,10.4,47,30.24,10.0,NNW,5.8,-,N/A,,Overcast,330,2014-03-23 19:55:00
2:15 PM,28.4,10.4,47,30.23,10.0,Calm,Calm,-,N/A,,Mostly Cloudy,0,2014-03-23 20:15:00
2:35 PM,28.4,8.6,43,30.23,10.0,NNE,5.8,-,N/A,,Overcast,30,2014-03-23 20:35:00
2:55 PM,28.4,10.4,47,30.23,10.0,NW,6.9,-,N/A,,Overcast,320,2014-03-23 20:55:00
3:15 PM,30.2,10.4,44,30.23,10.0,NE,5.8,-,N/A,,Overcast,50,2014-03-23 21:15:00
3:35 PM,28.4,10.4,47,30.23,10.0,Calm,Calm,-,N/A,,Scattered Clouds,0,2014-03-23 21:35:00
3:55 PM,30.2,10.4,44,30.23,10.0,Calm,Calm,-,N/A,,Clear,0,2014-03-23 21:55:00
4:15 PM,28.4,10.4,47,30.23,10.0,North,5.8,-,N/A,,Scattered Clouds,10,2014-03-23 22:15:00
4:35 PM,30.2,10.4,44,30.24,10.0,North,6.9,-,N/A,,Partly Cloudy,10,2014-03-23 22:35:00
4:55 PM,30.2,10.4,44,30.24,10.0,NNE,5.8,-,N/A,,Scattered Clouds,20,2014-03-23 22:55:00
5:15 PM,30.2,8.6,40,30.24,10.0,NNE,6.9,-,N/A,,Mostly Cloudy,30,2014-03-23 23:15:00
5:35 PM,30.2,8.6,40,30.25,10.0,NNW,3.5,-,N/A,,Scattered Clouds,330,2014-03-23 23:35:00
5:55 PM,28.4,8.6,43,30.25,10.0,North,8.1,-,N/A,,Partly Cloudy,350,2014-03-23 23:55:00
6:15 PM,30.2,8.6,40,30.26,10.0,NNE,4.6,-,N/A,,Mostly Cloudy,30,2014-03-24 00:15:00
6:35 PM,28.4,8.6,43,30.26,10.0,Calm,Calm,-,N/A,,Overcast,0,2014-03-24 00:35:00
6:55 PM,28.4,8.6,43,30.27,10.0,NNW,6.9,-,N/A,,Overcast,340,2014-03-24 00:55:00
7:15 PM,28.4,6.8,40,30.27,10.0,NNW,4.6,-,N/A,,Overcast,340,2014-03-24 01:15:00
7:35 PM,26.6,6.8,43,30.27,10.0,NW,3.5,-,N/A,,Mostly Cloudy,310,2014-03-24 01:35:00
7:55 PM,23.0,8.6,54,30.28,10.0,WNW,4.6,-,N/A,,Mostly Cloudy,300,2014-03-24 01:55:00
8:15 PM,23.0,8.6,54,30.28,10.0,NW,5.8,-,N/A,,Scattered Clouds,320,2014-03-24 02:15:00
8:35 PM,24.8,10.4,54,30.28,10.0,North,3.5,-,N/A,,Mostly Cloudy,350,2014-03-24 02:35:00
8:55 PM,23.0,8.6,54,30.29,10.0,Calm,Calm,-,N/A,,Scattered Clouds,0,2014-03-24 02:55:00
9:15 PM,19.4,8.6,63,30.29,10.0,NW,6.9,-,N/A,,Clear,310,2014-03-24 03:15:00
9:35 PM,19.4,6.8,58,30.29,10.0,WNW,3.5,-,N/A,,Clear,300,2014-03-24 03:35:00
9:55 PM,17.6,8.6,68,30.30,10.0,NW,5.8,-,N/A,,Partly Cloudy,310,2014-03-24 03:55:00
10:15 PM,17.6,8.6,68,30.29,10.0,WNW,3.5,-,N/A,,Clear,290,2014-03-24 04:15:00
10:35 PM,17.6,10.4,73,30.30,10.0,WNW,5.8,-,N/A,,Partly Cloudy,290,2014-03-24 04:35:00
10:55 PM,19.4,12.2,74,30.30,10.0,WNW,5.8,-,N/A,,Mostly Cloudy,290,2014-03-24 04:55:00
11:15 PM,21.2,10.4,63,30.29,10.0,Calm,Calm,-,N/A,,Overcast,0,2014-03-24 05:15:00
11:35 PM,21.2,10.4,63,30.29,10.0,Calm,Calm,-,N/A,,Overcast,0,2014-03-24 05:35:00